User: anonymous   Login
Location: Brno
(49.2000°N, 16.6330°E)
Time: 16:26:52
(UTC+02:00)
Language:

Cosmos 1603 - Orbit

View from above orbital plane
View from above orbital plane
View from above satellite
View from above satellite

Ground track
Ground track

The orbit data is extracted from the following two-line orbital elements,

1 15333U 84106A   15115.07180296  .00000226  00000-0  14356-3 0  9992
2 15333 071.0248 294.2065 0020711 316.1815 183.2296 14.13990505577426
Epoch (UTC): 25 April 2015 01:43:23
Eccentricity: 0.0020711
inclination: 71.0248°
perigee height: 831 km
apogee height: 861 km
right ascension of ascending node: 294.2065°
argument of perigee: 316.1815°
revolutions per day: 14.13990505
mean anomaly at epoch: 183.2296°
orbit number at epoch: 57742

The dashed part of the orbit path shows where the satellite is in the earth's shadow,  

DLR